| time (UTC) | temp C | wind direction | speed KPH | gust KPH | rain 1hr cm | rain 24hr cm | rain mn cm | humidity % | barometer mb |
| 20260507041304 | 13 | 335 | 0.0 | 4.8 | 0.00 | 0.00 | 0.00 | 83 | 1028.4 |
| 20260507040903 | 13 | 359 | 1.6 | 6.4 | 0.00 | 0.00 | 0.00 | 83 | 1028.3 |
| 20260507040502 | 12 | 320 | 1.6 | 6.4 | 0.00 | 0.00 | 0.00 | 84 | 1028.4 |
| 20260507040101 | 12 | 341 | 3.2 | 6.4 | 0.00 | 0.00 | 0.00 | 84 | 1028.3 |
| 20260507035700 | 12 | 337 | 4.8 | 6.4 | 0.00 | 0.00 | 0.00 | 84 | 1028.3 |
| 20260507035259 | 12 | 50 | 1.6 | 4.8 | 0.00 | 0.00 | 0.00 | 84 | 1028.3 |
| 20260507034858 | 12 | 326 | 1.6 | 3.2 | 0.00 | 0.00 | 0.00 | 85 | 1028.1 |
| 20260507034457 | 12 | 336 | 1.6 | 6.4 | 0.00 | 0.00 | 0.00 | 85 | 1028.1 |
| 20260507034056 | 12 | 330 | 6.4 | 8.0 | 0.00 | 0.00 | 0.00 | 86 | 1028.2 |
| 20260507033655 | 11 | 3 | 0.0 | 8.0 | 0.00 | 0.00 | 0.00 | 86 | 1028.0 |
| 20260507033254 | 11 | 344 | 4.8 | 11.3 | 0.00 | 0.00 | 0.00 | 86 | 1028.0 |
| 20260507032853 | 11 | 259 | 1.6 | 6.4 | 0.00 | 0.00 | 0.00 | 85 | 1028.0 |
| 20260507032453 | 11 | 350 | 1.6 | 6.4 | 0.00 | 0.00 | 0.00 | 85 | 1027.9 |
| 20260507032051 | 11 | 355 | 3.2 | 4.8 | 0.00 | 0.00 | 0.00 | 85 | 1027.8 |
| 20260507031651 | 11 | 356 | 4.8 | 9.7 | 0.00 | 0.00 | 0.00 | 85 | 1027.7 |
| 20260507031250 | 11 | 349 | 6.4 | 6.4 | 0.00 | 0.00 | 0.00 | 85 | 1027.7 |
| 20260507030849 | 11 | 342 | 6.4 | 9.7 | 0.00 | 0.00 | 0.00 | 85 | 1027.7 |
| 20260507030449 | 11 | 345 | 4.8 | 11.3 | 0.00 | 0.00 | 0.00 | 84 | 1027.7 |
| 20260507030047 | 11 | 329 | 6.4 | 11.3 | 0.00 | 0.00 | 0.00 | 84 | 1027.6 |
| 20260507025646 | 11 | 331 | 8.0 | 11.3 | 0.00 | 0.00 | 0.00 | 83 | 1027.6 |
| 20260507025245 | 11 | 337 | 4.8 | 11.3 | 0.00 | 0.00 | 0.00 | 83 | 1027.6 |
| 20260507024844 | 11 | 45 | 4.8 | 9.7 | 0.00 | 0.00 | 0.00 | 82 | 1027.5 |
| 20260507024443 | 11 | 345 | 8.0 | 9.7 | 0.00 | 0.00 | 0.00 | 82 | 1027.4 |
| 20260507024042 | 12 | 355 | 9.7 | 9.7 | 0.00 | 0.00 | 0.00 | 81 | 1027.4 |
| 20260507023641 | 12 | 353 | 6.4 | 9.7 | 0.00 | 0.00 | 0.00 | 80 | 1027.4 |
| 20260507023240 | 12 | 334 | 4.8 | 12.9 | 0.00 | 0.00 | 0.00 | 80 | 1027.3 |
| 20260507022840 | 12 | 327 | 4.8 | 8.0 | 0.00 | 0.00 | 0.00 | 79 | 1027.2 |
| 20260507022439 | 12 | 325 | 8.0 | 8.0 | 0.00 | 0.00 | 0.00 | 79 | 1027.2 |
| 20260507021637 | 12 | 357 | 3.2 | 11.3 | 0.00 | 0.00 | 0.00 | 77 | 1027.2 |
| 20260507021236 | 12 | 355 | 4.8 | 8.0 | 0.00 | 0.00 | 0.00 | 76 | 1027.1 |
| 20260507020835 | 13 | 350 | 4.8 | 9.7 | 0.00 | 0.00 | 0.00 | 76 | 1027.2 |
| 20260507020434 | 13 | 349 | 8.0 | 8.0 | 0.00 | 0.00 | 0.00 | 75 | 1027.2 |
| 20260507020033 | 13 | 325 | 3.2 | 8.0 | 0.00 | 0.00 | 0.00 | 74 | 1027.1 |
| 20260507015632 | 13 | 318 | 6.4 | 9.7 | 0.00 | 0.00 | 0.00 | 74 | 1027.2 |
| 20260507015231 | 13 | 318 | 3.2 | 11.3 | 0.00 | 0.00 | 0.00 | 73 | 1027.1 |
| 20260507014830 | 13 | 348 | 3.2 | 9.7 | 0.00 | 0.00 | 0.00 | 73 | 1027.2 |
| 20260507014429 | 14 | 230 | 4.8 | 8.0 | 0.00 | 0.00 | 0.00 | 72 | 1027.1 |
| 20260507014028 | 14 | 316 | 4.8 | 9.7 | 0.00 | 0.00 | 0.00 | 72 | 1027.1 |
| 20260507013628 | 14 | 306 | 6.4 | 8.0 | 0.00 | 0.00 | 0.00 | 72 | 1027.1 |
| 20260507013227 | 15 | 318 | 6.4 | 11.3 | 0.00 | 0.00 | 0.00 | 71 | 1027.1 |
| 20260507012825 | 15 | 355 | 8.0 | 9.7 | 0.00 | 0.00 | 0.00 | 71 | 1027.1 |
| 20260507012424 | 15 | 3 | 6.4 | 9.7 | 0.00 | 0.00 | 0.00 | 70 | 1027.1 |
| 20260507012024 | 15 | 0 | 3.2 | 9.7 | 0.00 | 0.00 | 0.00 | 70 | 1027.1 |
| 20260507011623 | 15 | 260 | 3.2 | 8.0 | 0.00 | 0.00 | 0.00 | 69 | 1027.1 |
| 20260507011222 | 15 | 334 | 6.4 | 9.7 | 0.00 | 0.00 | 0.00 | 69 | 1027.1 |
| 20260507010821 | 15 | 345 | 4.8 | 9.7 | 0.00 | 0.00 | 0.00 | 68 | 1027.0 |
| 20260507010420 | 16 | 1 | 4.8 | 9.7 | 0.00 | 0.00 | 0.00 | 68 | 1027.0 |
| 20260507010019 | 16 | 322 | 4.8 | 9.7 | 0.00 | 0.00 | 0.00 | 68 | 1027.0 |
| 20260507005618 | 16 | 190 | 3.2 | 11.3 | 0.00 | 0.00 | 0.00 | 68 | 1027.0 |
| 20260507005217 | 16 | 311 | 6.4 | 8.0 | 0.00 | 0.00 | 0.00 | 67 | 1027.0 |
| 20260507004816 | 16 | 313 | 4.8 | 12.9 | 0.00 | 0.00 | 0.00 | 67 | 1027.1 |
| 20260507004415 | 16 | 271 | 4.8 | 8.0 | 0.00 | 0.00 | 0.00 | 67 | 1027.1 |
| 20260507004014 | 16 | 282 | 4.8 | 8.0 | 0.00 | 0.00 | 0.00 | 66 | 1027.0 |
| 20260507003613 | 17 | 319 | 4.8 | 8.0 | 0.00 | 0.00 | 0.00 | 66 | 1027.1 |
| 20260507003213 | 17 | 325 | 6.4 | 8.0 | 0.00 | 0.00 | 0.00 | 66 | 1027.2 |
| 20260507002812 | 17 | 316 | 3.2 | 9.7 | 0.00 | 0.00 | 0.00 | 66 | 1027.2 |
| 20260507002411 | 17 | 315 | 4.8 | 9.7 | 0.00 | 0.00 | 0.00 | 65 | 1027.1 |
| 20260507002010 | 17 | 346 | 3.2 | 9.7 | 0.00 | 0.00 | 0.00 | 65 | 1027.0 |
| 20260507001609 | 17 | 319 | 3.2 | 9.7 | 0.00 | 0.00 | 0.00 | 65 | 1027.0 |
| 20260507001208 | 17 | 287 | 6.4 | 8.0 | 0.00 | 0.00 | 0.00 | 65 | 1027.0 |
| 20260507000807 | 17 | 301 | 6.4 | 14.5 | 0.00 | 0.00 | 0.00 | 64 | 1027.0 |
| 20260507000406 | 17 | 357 | 3.2 | 12.9 | 0.00 | 0.00 | 0.00 | 64 | 1026.9 |
| 20260507000005 | 18 | 93 | 4.8 | 11.3 | 0.00 | 0.00 | 0.00 | 64 | 1026.9 |
| 20260506235604 | 18 | 316 | 6.4 | 9.7 | 0.00 | 0.00 | 0.00 | 64 | 1026.9 |
| 20260506235203 | 18 | 352 | 6.4 | 11.3 | 0.00 | 0.00 | 0.00 | 64 | 1026.9 |
| 20260506234802 | 18 | 325 | 8.0 | 11.3 | 0.00 | 0.00 | 0.00 | 63 | 1026.9 |
| 20260506234401 | 18 | 319 | 4.8 | 8.0 | 0.00 | 0.00 | 0.00 | 63 | 1026.9 |
| 20260506234001 | 18 | 285 | 4.8 | 9.7 | 0.00 | 0.00 | 0.00 | 63 | 1027.0 |
| 20260506233600 | 18 | 40 | 3.2 | 11.3 | 0.00 | 0.00 | 0.00 | 63 | 1026.9 |
| 20260506233159 | 18 | 358 | 9.7 | 11.3 | 0.00 | 0.00 | 0.00 | 63 | 1027.0 |
| 20260506232758 | 18 | 356 | 4.8 | 6.4 | 0.00 | 0.00 | 0.00 | 63 | 1027.0 |
| 20260506232357 | 19 | 358 | 3.2 | 8.0 | 0.00 | 0.00 | 0.00 | 63 | 1027.0 |
| 20260506231956 | 19 | 323 | 4.8 | 8.0 | 0.00 | 0.00 | 0.00 | 62 | 1027.0 |
| 20260506231555 | 19 | 325 | 3.2 | 8.0 | 0.00 | 0.00 | 0.00 | 62 | 1027.1 |
| 20260506231154 | 19 | 308 | 3.2 | 9.7 | 0.00 | 0.00 | 0.00 | 62 | 1027.2 |
| 20260506230753 | 19 | 349 | 6.4 | 8.0 | 0.00 | 0.00 | 0.00 | 62 | 1027.1 |
| 20260506230352 | 20 | 262 | 3.2 | 8.0 | 0.00 | 0.00 | 0.00 | 62 | 1027.2 |
| 20260506225952 | 20 | 309 | 3.2 | 8.0 | 0.00 | 0.00 | 0.00 | 62 | 1027.3 |
| 20260506225550 | 20 | 282 | 4.8 | 6.4 | 0.00 | 0.00 | 0.00 | 62 | 1027.3 |
| 20260506225149 | 20 | 55 | 3.2 | 6.4 | 0.00 | 0.00 | 0.00 | 62 | 1027.3 |
| 20260506224748 | 20 | 312 | 3.2 | 6.4 | 0.00 | 0.00 | 0.00 | 62 | 1027.3 |
| 20260506224347 | 20 | 78 | 3.2 | 8.0 | 0.00 | 0.00 | 0.00 | 62 | 1027.4 |
| 20260506223946 | 20 | 272 | 4.8 | 8.0 | 0.00 | 0.00 | 0.00 | 62 | 1027.3 |
| 20260506223546 | 20 | 9 | 1.6 | 9.7 | 0.00 | 0.00 | 0.00 | 62 | 1027.5 |
| 20260506223145 | 20 | 316 | 4.8 | 9.7 | 0.00 | 0.00 | 0.00 | 62 | 1027.4 |
| 20260506222744 | 20 | 47 | 3.2 | 6.4 | 0.00 | 0.00 | 0.00 | 62 | 1027.5 |
| 20260506222343 | 20 | 272 | 1.6 | 8.0 | 0.00 | 0.00 | 0.00 | 61 | 1027.6 |
| 20260506221942 | 20 | 262 | 3.2 | 8.0 | 0.00 | 0.00 | 0.00 | 61 | 1027.6 |
| 20260506221541 | 20 | 315 | 3.2 | 9.7 | 0.00 | 0.00 | 0.00 | 61 | 1027.6 |
| 20260506221140 | 20 | 36 | 9.7 | 11.3 | 0.00 | 0.00 | 0.00 | 61 | 1027.6 |
| 20260506220739 | 20 | 328 | 3.2 | 12.9 | 0.00 | 0.00 | 0.00 | 61 | 1027.6 |
| 20260506220338 | 20 | 333 | 12.9 | 12.9 | 0.00 | 0.00 | 0.00 | 60 | 1027.6 |
| 20260506215937 | 20 | 42 | 3.2 | 6.4 | 0.00 | 0.00 | 0.00 | 61 | 1027.6 |
| 20260506215536 | 20 | 274 | 3.2 | 6.4 | 0.00 | 0.00 | 0.00 | 60 | 1027.8 |
| 20260506215135 | 20 | 192 | 4.8 | 8.0 | 0.00 | 0.00 | 0.00 | 60 | 1027.8 |
| 20260506214735 | 20 | 244 | 4.8 | 8.0 | 0.00 | 0.00 | 0.00 | 60 | 1027.7 |
| 20260506214334 | 20 | 37 | 1.6 | 8.0 | 0.00 | 0.00 | 0.00 | 60 | 1027.7 |
| 20260506213933 | 21 | 343 | 1.6 | 6.4 | 0.00 | 0.00 | 0.00 | 59 | 1027.8 |
| 20260506213532 | 21 | 133 | 4.8 | 6.4 | 0.00 | 0.00 | 0.00 | 59 | 1027.8 |
| 20260506213131 | 21 | 4 | 6.4 | 8.0 | 0.00 | 0.00 | 0.00 | 59 | 1027.9 |
| 20260506212730 | 21 | 75 | 1.6 | 14.5 | 0.00 | 0.00 | 0.00 | 59 | 1027.9 |
| 20260506212329 | 22 | 53 | 14.5 | 14.5 | 0.00 | 0.00 | 0.00 | 59 | 1027.8 |
| 20260506211928 | 22 | 303 | 3.2 | 6.4 | 0.00 | 0.00 | 0.00 | 59 | 1027.9 |
| 20260506211527 | 22 | 185 | 1.6 | 11.3 | 0.00 | 0.00 | 0.00 | 59 | 1027.9 |
| 20260506211126 | 22 | 328 | 4.8 | 9.7 | 0.00 | 0.00 | 0.00 | 59 | 1028.0 |
| 20260506210725 | 22 | 267 | 1.6 | 8.0 | 0.00 | 0.00 | 0.00 | 59 | 1028.0 |
| 20260506210324 | 22 | 41 | 1.6 | 4.8 | 0.00 | 0.00 | 0.00 | 59 | 1028.0 |
| 20260506205923 | 22 | 51 | 1.6 | 4.8 | 0.00 | 0.00 | 0.00 | 60 | 1028.0 |
| 20260506205522 | 22 | 292 | 1.6 | 6.4 | 0.00 | 0.00 | 0.00 | 60 | 1028.0 |
| 20260506205121 | 22 | 218 | 1.6 | 4.8 | 0.00 | 0.00 | 0.00 | 60 | 1028.0 |
| 20260506204720 | 22 | 251 | 1.6 | 4.8 | 0.00 | 0.00 | 0.00 | 61 | 1027.9 |
| 20260506204319 | 21 | 256 | 1.6 | 3.2 | 0.00 | 0.00 | 0.00 | 61 | 1027.9 |
| 20260506203919 | 21 | 299 | 1.6 | 4.8 | 0.00 | 0.00 | 0.00 | 60 | 1027.9 |
| 20260506203518 | 21 | 238 | 3.2 | 4.8 | 0.00 | 0.00 | 0.00 | 60 | 1028.0 |
| 20260506203117 | 21 | 240 | 3.2 | 4.8 | 0.00 | 0.00 | 0.00 | 60 | 1027.9 |
| 20260506202716 | 21 | 356 | 1.6 | 4.8 | 0.00 | 0.00 | 0.00 | 60 | 1027.9 |
| 20260506202315 | 21 | 4 | 1.6 | 6.4 | 0.00 | 0.00 | 0.00 | 60 | 1027.9 |
| 20260506201914 | 21 | 4 | 3.2 | 6.4 | 0.00 | 0.00 | 0.00 | 60 | 1027.9 |
| 20260506201513 | 21 | 346 | 0.0 | 4.8 | 0.00 | 0.00 | 0.00 | 60 | 1027.9 |
| 20260506201112 | 21 | 324 | 0.0 | 6.4 | 0.00 | 0.00 | 0.00 | 60 | 1027.9 |
| 20260506200711 | 20 | 36 | 1.6 | 3.2 | 0.00 | 0.00 | 0.00 | 61 | 1028.0 |
| 20260506200310 | 20 | 21 | 0.0 | 4.8 | 0.00 | 0.00 | 0.00 | 61 | 1028.0 |
| 20260506195909 | 20 | 32 | 1.6 | 3.2 | 0.00 | 0.00 | 0.00 | 61 | 1028.0 |
| 20260506195508 | 20 | 66 | 1.6 | 4.8 | 0.00 | 0.00 | 0.00 | 61 | 1028.0 |
| 20260506195107 | 20 | 8 | 3.2 | 4.8 | 0.00 | 0.00 | 0.00 | 61 | 1028.0 |
| 20260506194707 | 20 | 355 | 1.6 | 4.8 | 0.00 | 0.00 | 0.00 | 61 | 1028.0 |
| 20260506194306 | 20 | 19 | 3.2 | 6.4 | 0.00 | 0.00 | 0.00 | 61 | 1028.0 |
| 20260506193905 | 20 | 8 | 0.0 | 4.8 | 0.00 | 0.00 | 0.00 | 62 | 1028.1 |
| 20260506193504 | 20 | 12 | 1.6 | 4.8 | 0.00 | 0.00 | 0.00 | 62 | 1028.1 |
| 20260506193103 | 19 | 15 | 0.0 | 8.0 | 0.00 | 0.00 | 0.00 | 62 | 1028.1 |
| 20260506192702 | 19 | 30 | 3.2 | 6.4 | 0.00 | 0.00 | 0.00 | 62 | 1028.2 |
| 20260506192301 | 19 | 12 | 3.2 | 4.8 | 0.00 | 0.00 | 0.00 | 62 | 1028.2 |
| 20260506191900 | 18 | 1 | 1.6 | 8.0 | 0.00 | 0.00 | 0.00 | 63 | 1028.1 |
| 20260506191459 | 18 | 53 | 4.8 | 4.8 | 0.00 | 0.00 | 0.00 | 63 | 1028.1 |
| 20260506191058 | 18 | 322 | 1.6 | 4.8 | 0.00 | 0.00 | 0.00 | 63 | 1028.1 |
| 20260506190657 | 18 | 40 | 4.8 | 8.0 | 0.00 | 0.00 | 0.00 | 62 | 1028.2 |
| 20260506190256 | 18 | 5 | 1.6 | 6.4 | 0.00 | 0.00 | 0.00 | 63 | 1028.2 |
| 20260506185855 | 18 | 321 | 3.2 | 6.4 | 0.00 | 0.00 | 0.00 | 63 | 1028.2 |
| 20260506185454 | 18 | 43 | 3.2 | 6.4 | 0.00 | 0.00 | 0.00 | 63 | 1028.1 |
| 20260506185053 | 18 | 2 | 4.8 | 6.4 | 0.00 | 0.00 | 0.00 | 63 | 1028.2 |
| 20260506184653 | 18 | 329 | 3.2 | 6.4 | 0.00 | 0.00 | 0.00 | 64 | 1028.2 |
| 20260506184252 | 18 | 353 | 3.2 | 8.0 | 0.00 | 0.00 | 0.00 | 63 | 1028.2 |
| 20260506183851 | 18 | 355 | 6.4 | 8.0 | 0.00 | 0.00 | 0.00 | 64 | 1028.2 |
| 20260506183450 | 18 | 3 | 8.0 | 8.0 | 0.00 | 0.00 | 0.00 | 64 | 1028.3 |
| 20260506183049 | 18 | 354 | 1.6 | 8.0 | 0.00 | 0.00 | 0.00 | 64 | 1028.3 |
| 20260506182648 | 18 | 7 | 4.8 | 6.4 | 0.00 | 0.00 | 0.00 | 64 | 1028.2 |
| 20260506182247 | 18 | 40 | 4.8 | 6.4 | 0.00 | 0.00 | 0.00 | 65 | 1028.3 |
| 20260506181846 | 18 | 351 | 1.6 | 4.8 | 0.00 | 0.00 | 0.00 | 65 | 1028.3 |
| 20260506181445 | 18 | 353 | 1.6 | 6.4 | 0.00 | 0.00 | 0.00 | 65 | 1028.4 |
| 20260506181044 | 18 | 343 | 4.8 | 9.7 | 0.00 | 0.00 | 0.00 | 66 | 1028.3 |
| 20260506180644 | 17 | 12 | 3.2 | 6.4 | 0.00 | 0.00 | 0.00 | 66 | 1028.4 |
| 20260506180243 | 17 | 351 | 1.6 | 4.8 | 0.00 | 0.00 | 0.00 | 66 | 1028.5 |
| 20260506175842 | 17 | 5 | 0.0 | 6.4 | 0.00 | 0.00 | 0.00 | 66 | 1028.3 |
| 20260506175441 | 17 | 11 | 4.8 | 6.4 | 0.00 | 0.00 | 0.00 | 66 | 1028.3 |
| 20260506175040 | 17 | 354 | 1.6 | 6.4 | 0.00 | 0.00 | 0.00 | 67 | 1028.2 |
| 20260506174639 | 17 | 343 | 3.2 | 6.4 | 0.00 | 0.00 | 0.00 | 67 | 1028.3 |
| 20260506174238 | 17 | 0 | 3.2 | 6.4 | 0.00 | 0.00 | 0.00 | 67 | 1028.2 |
| 20260506173837 | 17 | 358 | 3.2 | 8.0 | 0.00 | 0.00 | 0.00 | 67 | 1028.1 |
| 20260506173436 | 17 | 1 | 3.2 | 6.4 | 0.00 | 0.00 | 0.00 | 68 | 1028.2 |
| 20260506173035 | 16 | 107 | 0.0 | 0.0 | 0.00 | 0.00 | 0.00 | 68 | 1028.2 |
| 20260506172640 | 16 | 11 | 3.2 | 4.8 | 0.00 | 0.00 | 0.00 | 68 | 1028.1 |
| 20260506172239 | 16 | 358 | 4.8 | 6.4 | 0.00 | 0.00 | 0.00 | 68 | 1028.1 |
| 20260506171838 | 16 | 19 | 1.6 | 6.4 | 0.00 | 0.00 | 0.00 | 68 | 1028.1 |
| 20260506171437 | 16 | 338 | 4.8 | 6.4 | 0.00 | 0.00 | 0.00 | 68 | 1028.1 |
| 20260506171036 | 16 | 5 | 1.6 | 4.8 | 0.00 | 0.00 | 0.00 | 68 | 1028.1 |
| 20260506170635 | 16 | 356 | 3.2 | 4.8 | 0.00 | 0.00 | 0.00 | 68 | 1028.1 |
| 20260506170234 | 15 | 13 | 1.6 | 8.0 | 0.00 | 0.00 | 0.00 | 68 | 1028.1 |
| 20260506165833 | 15 | 22 | 8.0 | 8.0 | 0.00 | 0.00 | 0.00 | 68 | 1028.1 |
| 20260506165432 | 15 | 359 | 1.6 | 11.3 | 0.00 | 0.00 | 0.00 | 68 | 1028.0 |
| 20260506165031 | 15 | 40 | 8.0 | 11.3 | 0.00 | 0.00 | 0.00 | 68 | 1027.9 |
| 20260506164631 | 15 | 22 | 4.8 | 8.0 | 0.00 | 0.00 | 0.00 | 69 | 1027.8 |
| 20260506164230 | 15 | 358 | 1.6 | 4.8 | 0.00 | 0.00 | 0.00 | 69 | 1027.9 |
| 20260506163829 | 15 | 351 | 3.2 | 4.8 | 0.00 | 0.00 | 0.00 | 69 | 1027.8 |
| 20260506163428 | 15 | 348 | 3.2 | 4.8 | 0.00 | 0.00 | 0.00 | 70 | 1027.8 |
| 20260506163027 | 14 | 320 | 3.2 | 6.4 | 0.00 | 0.00 | 0.00 | 70 | 1027.9 |
| 20260506162626 | 14 | 340 | 3.2 | 8.0 | 0.00 | 0.00 | 0.00 | 70 | 1027.9 |
| 20260506162225 | 14 | 8 | 4.8 | 8.0 | 0.00 | 0.00 | 0.00 | 70 | 1027.8 |
| 20260506161824 | 14 | 359 | 3.2 | 8.0 | 0.00 | 0.00 | 0.00 | 70 | 1027.9 |
| 20260506161423 | 14 | 356 | 1.6 | 9.7 | 0.00 | 0.00 | 0.00 | 71 | 1027.9 |
| 20260506161022 | 14 | 345 | 4.8 | 8.0 | 0.00 | 0.00 | 0.00 | 73 | 1027.9 |
| 20260506160621 | 14 | 5 | 1.6 | 4.8 | 0.00 | 0.00 | 0.00 | 73 | 1027.9 |
| 20260506160220 | 13 | 10 | 3.2 | 4.8 | 0.00 | 0.00 | 0.00 | 74 | 1027.9 |
| 20260506155820 | 13 | 353 | 3.2 | 6.4 | 0.00 | 0.00 | 0.00 | 74 | 1027.9 |
| 20260506155419 | 13 | 5 | 4.8 | 6.4 | 0.00 | 0.00 | 0.00 | 74 | 1027.9 |
| 20260506155018 | 13 | 330 | 3.2 | 4.8 | 0.00 | 0.00 | 0.00 | 75 | 1028.0 |
| 20260506154617 | 12 | 0 | 3.2 | 8.0 | 0.00 | 0.00 | 0.00 | 75 | 1027.9 |
| 20260506154216 | 12 | 5 | 1.6 | 6.4 | 0.00 | 0.00 | 0.00 | 75 | 1027.9 |
| 20260506153815 | 12 | 336 | 3.2 | 8.0 | 0.00 | 0.00 | 0.00 | 75 | 1027.8 |
| 20260506153414 | 12 | 297 | 4.8 | 8.0 | 0.00 | 0.00 | 0.00 | 74 | 1027.7 |
| 20260506153013 | 12 | 315 | 3.2 | 8.0 | 0.00 | 0.00 | 0.00 | 75 | 1027.7 |
| 20260506152612 | 12 | 0 | 6.4 | 8.0 | 0.00 | 0.00 | 0.00 | 75 | 1027.6 |
| 20260506152211 | 12 | 328 | 4.8 | 9.7 | 0.00 | 0.00 | 0.00 | 75 | 1027.6 |
| 20260506151810 | 12 | 338 | 1.6 | 8.0 | 0.00 | 0.00 | 0.00 | 76 | 1027.7 |
| 20260506151409 | 12 | 352 | 4.8 | 9.7 | 0.00 | 0.00 | 0.00 | 77 | 1027.7 |
| 20260506151008 | 12 | 348 | 4.8 | 8.0 | 0.00 | 0.00 | 0.00 | 77 | 1027.7 |
| 20260506150607 | 12 | 357 | 4.8 | 8.0 | 0.00 | 0.00 | 0.00 | 78 | 1027.7 |
| 20260506150206 | 11 | 309 | 4.8 | 6.4 | 0.00 | 0.00 | 0.00 | 79 | 1027.8 |
| 20260506145805 | 11 | 4 | 1.6 | 4.8 | 0.00 | 0.00 | 0.00 | 79 | 1027.7 |
| 20260506145405 | 11 | 0 | 3.2 | 9.7 | 0.00 | 0.00 | 0.00 | 78 | 1027.6 |
| 20260506145004 | 11 | 325 | 3.2 | 6.4 | 0.00 | 0.00 | 0.00 | 79 | 1027.6 |
| 20260506144603 | 11 | 0 | 1.6 | 6.4 | 0.00 | 0.00 | 0.00 | 80 | 1027.8 |
| 20260506144202 | 11 | 346 | 1.6 | 6.4 | 0.00 | 0.00 | 0.00 | 80 | 1027.6 |
| 20260506143801 | 11 | 356 | 1.6 | 3.2 | 0.00 | 0.00 | 0.00 | 81 | 1027.6 |
| 20260506143400 | 11 | 358 | 3.2 | 4.8 | 0.00 | 0.00 | 0.00 | 81 | 1027.7 |
| 20260506142959 | 11 | 357 | 0.0 | 6.4 | 0.00 | 0.00 | 0.00 | 82 | 1027.7 |
| 20260506142558 | 11 | 346 | 3.2 | 6.4 | 0.00 | 0.00 | 0.00 | 83 | 1027.6 |
| 20260506142157 | 10 | 324 | 1.6 | 3.2 | 0.00 | 0.00 | 0.00 | 84 | 1027.7 |
| 20260506141756 | 10 | 317 | 1.6 | 1.6 | 0.00 | 0.00 | 0.00 | 84 | 1027.6 |
| 20260506141355 | 10 | 342 | 0.0 | 4.8 | 0.00 | 0.00 | 0.00 | 85 | 1027.7 |
| 20260506140954 | 10 | 346 | 0.0 | 4.8 | 0.00 | 0.00 | 0.00 | 85 | 1027.7 |
| 20260506140554 | 9 | 356 | 0.0 | 4.8 | 0.00 | 0.00 | 0.00 | 85 | 1027.7 |
| 20260506140153 | 9 | 10 | 1.6 | 8.0 | 0.00 | 0.00 | 0.00 | 85 | 1027.5 |
| 20260506135752 | 8 | 320 | 4.8 | 4.8 | 0.00 | 0.00 | 0.00 | 86 | 1027.5 |
| 20260506135351 | 8 | 341 | 1.6 | 6.4 | 0.00 | 0.00 | 0.00 | 86 | 1027.5 |
| 20260506134950 | 8 | 325 | 3.2 | 6.4 | 0.00 | 0.00 | 0.00 | 86 | 1027.3 |
| 20260506134549 | 8 | 321 | 1.6 | 6.4 | 0.00 | 0.00 | 0.00 | 86 | 1027.4 |
| 20260506134148 | 8 | 339 | 1.6 | 3.2 | 0.00 | 0.00 | 0.00 | 86 | 1027.3 |
| 20260506133747 | 7 | 327 | 0.0 | 3.2 | 0.00 | 0.00 | 0.00 | 86 | 1027.3 |
| 20260506133346 | 7 | 349 | 1.6 | 4.8 | 0.00 | 0.00 | 0.00 | 86 | 1027.4 |
| 20260506132945 | 7 | 323 | 0.0 | 4.8 | 0.00 | 0.00 | 0.00 | 86 | 1027.3 |
| 20260506132544 | 7 | 304 | 1.6 | 4.8 | 0.00 | 0.00 | 0.00 | 86 | 1027.3 |
| 20260506132143 | 7 | 312 | 1.6 | 3.2 | 0.00 | 0.00 | 0.00 | 86 | 1027.2 |
| 20260506131744 | 7 | 308 | 1.6 | 6.4 | 0.00 | 0.00 | 0.00 | 86 | 1027.3 |
| 20260506131341 | 7 | 337 | 1.6 | 8.0 | 0.00 | 0.00 | 0.00 | 86 | 1027.1 |
| 20260506130940 | 7 | 354 | 4.8 | 4.8 | 0.00 | 0.00 | 0.00 | 86 | 1027.1 |
| 20260506130539 | 7 | 347 | 3.2 | 4.8 | 0.00 | 0.00 | 0.00 | 86 | 1027.2 |
| 20260506130139 | 7 | 337 | 1.6 | 3.2 | 0.00 | 0.00 | 0.00 | 86 | 1027.2 |
| 20260506125738 | 7 | 330 | 3.2 | 6.4 | 0.00 | 0.00 | 0.00 | 86 | 1027.1 |
| 20260506125337 | 7 | 346 | 6.4 | 9.7 | 0.00 | 0.00 | 0.00 | 86 | 1027.0 |
| 20260506124936 | 7 | 341 | 4.8 | 6.4 | 0.00 | 0.00 | 0.00 | 86 | 1027.1 |
| 20260506124535 | 7 | 329 | 3.2 | 8.0 | 0.00 | 0.00 | 0.00 | 86 | 1027.1 |
| 20260506124134 | 7 | 330 | 3.2 | 8.0 | 0.00 | 0.00 | 0.00 | 86 | 1027.0 |
| 20260506123733 | 7 | 279 | 3.2 | 6.4 | 0.00 | 0.00 | 0.00 | 86 | 1027.0 |
| 20260506123332 | 7 | 337 | 3.2 | 9.7 | 0.00 | 0.00 | 0.00 | 86 | 1026.9 |
| 20260506122931 | 7 | 308 | 4.8 | 11.3 | 0.00 | 0.00 | 0.00 | 86 | 1026.9 |
| 20260506122530 | 7 | 322 | 6.4 | 9.7 | 0.00 | 0.00 | 0.00 | 86 | 1027.0 |
| 20260506122129 | 7 | 344 | 8.0 | 9.7 | 0.00 | 0.00 | 0.00 | 85 | 1027.0 |
| 20260506121728 | 7 | 12 | 3.2 | 6.4 | 0.00 | 0.00 | 0.00 | 85 | 1027.0 |
| 20260506121327 | 7 | 322 | 1.6 | 4.8 | 0.00 | 0.00 | 0.00 | 85 | 1027.0 |
| 20260506120927 | 7 | 310 | 3.2 | 4.8 | 0.00 | 0.00 | 0.00 | 85 | 1026.9 |
| 20260506120527 | 7 | 348 | 1.6 | 4.8 | 0.00 | 0.00 | 0.00 | 85 | 1027.0 |
| 20260506120125 | 7 | 352 | 1.6 | 4.8 | 0.00 | 0.00 | 0.00 | 85 | 1027.0 |
| 20260506115724 | 7 | 323 | 3.2 | 6.4 | 0.00 | 0.00 | 0.00 | 85 | 1027.0 |
| 20260506115323 | 7 | 297 | 1.6 | 6.4 | 0.00 | 0.00 | 0.00 | 85 | 1027.0 |
| 20260506114922 | 7 | 350 | 1.6 | 3.2 | 0.00 | 0.00 | 0.00 | 85 | 1026.9 |
| 20260506114521 | 7 | 40 | 1.6 | 4.8 | 0.00 | 0.00 | 0.00 | 85 | 1027.0 |
| 20260506114120 | 7 | 265 | 3.2 | 4.8 | 0.00 | 0.00 | 0.00 | 85 | 1026.9 |
| 20260506113719 | 7 | 326 | 4.8 | 4.8 | 0.00 | 0.00 | 0.00 | 85 | 1026.9 |
| 20260506113318 | 7 | 280 | 4.8 | 4.8 | 0.00 | 0.00 | 0.00 | 85 | 1026.9 |
| 20260506112917 | 7 | 302 | 3.2 | 4.8 | 0.00 | 0.00 | 0.00 | 85 | 1026.9 |
| 20260506112516 | 7 | 286 | 3.2 | 3.2 | 0.00 | 0.00 | 0.00 | 85 | 1026.9 |
| 20260506112115 | 7 | 297 | 1.6 | 3.2 | 0.00 | 0.00 | 0.00 | 85 | 1026.9 |
| 20260506111716 | 7 | 322 | 3.2 | 6.4 | 0.00 | 0.00 | 0.00 | 85 | 1026.9 |
| 20260506111313 | 7 | 324 | 3.2 | 6.4 | 0.00 | 0.00 | 0.00 | 85 | 1026.8 |
| 20260506110913 | 7 | 263 | 1.6 | 6.4 | 0.00 | 0.00 | 0.00 | 85 | 1026.8 |
| 20260506110512 | 7 | 328 | 3.2 | 8.0 | 0.00 | 0.00 | 0.00 | 85 | 1026.8 |
| 20260506110111 | 7 | 322 | 8.0 | 8.0 | 0.00 | 0.00 | 0.00 | 85 | 1026.7 |
| 20260506105710 | 7 | 347 | 4.8 | 8.0 | 0.00 | 0.00 | 0.00 | 85 | 1026.7 |
| 20260506105309 | 7 | 350 | 6.4 | 11.3 | 0.00 | 0.00 | 0.00 | 85 | 1026.7 |
| 20260506104908 | 7 | 356 | 9.7 | 14.5 | 0.00 | 0.00 | 0.00 | 85 | 1026.7 |
| 20260506104507 | 7 | 0 | 9.7 | 11.3 | 0.00 | 0.00 | 0.00 | 85 | 1026.6 |
| 20260506104106 | 7 | 338 | 3.2 | 4.8 | 0.00 | 0.00 | 0.00 | 85 | 1026.8 |
| 20260506103705 | 7 | 349 | 4.8 | 6.4 | 0.00 | 0.00 | 0.00 | 85 | 1026.8 |
| 20260506103304 | 7 | 345 | 4.8 | 9.7 | 0.00 | 0.00 | 0.00 | 85 | 1026.7 |
| 20260506102903 | 7 | 357 | 4.8 | 8.0 | 0.00 | 0.00 | 0.00 | 85 | 1026.6 |
| 20260506102502 | 7 | 349 | 4.8 | 6.4 | 0.00 | 0.00 | 0.00 | 85 | 1026.6 |
| 20260506102101 | 7 | 349 | 3.2 | 4.8 | 0.00 | 0.00 | 0.00 | 85 | 1026.7 |
| 20260506101701 | 7 | 324 | 3.2 | 8.0 | 0.00 | 0.00 | 0.00 | 85 | 1026.7 |
| 20260506101300 | 7 | 351 | 3.2 | 8.0 | 0.00 | 0.00 | 0.00 | 85 | 1026.7 |
| 20260506100859 | 7 | 350 | 3.2 | 6.4 | 0.00 | 0.00 | 0.00 | 85 | 1026.7 |
| 20260506100458 | 7 | 347 | 3.2 | 6.4 | 0.00 | 0.00 | 0.00 | 85 | 1026.8 |
| 20260506100057 | 7 | 331 | 4.8 | 6.4 | 0.00 | 0.00 | 0.00 | 84 | 1026.7 |
| 20260506095656 | 7 | 319 | 3.2 | 8.0 | 0.00 | 0.00 | 0.00 | 84 | 1026.7 |
| 20260506095255 | 7 | 326 | 1.6 | 8.0 | 0.00 | 0.00 | 0.00 | 84 | 1026.7 |
| 20260506094854 | 7 | 331 | 3.2 | 4.8 | 0.00 | 0.00 | 0.00 | 84 | 1026.6 |
| 20260506094453 | 7 | 325 | 4.8 | 8.0 | 0.00 | 0.00 | 0.00 | 84 | 1026.7 |
| 20260506094052 | 7 | 348 | 4.8 | 8.0 | 0.00 | 0.00 | 0.00 | 84 | 1026.7 |
| 20260506093651 | 7 | 353 | 4.8 | 12.9 | 0.00 | 0.00 | 0.00 | 84 | 1026.7 |
| 20260506093250 | 7 | 342 | 6.4 | 12.9 | 0.00 | 0.00 | 0.00 | 84 | 1026.7 |
| 20260506092850 | 7 | 2 | 8.0 | 11.3 | 0.00 | 0.00 | 0.00 | 84 | 1026.7 |
| 20260506092449 | 7 | 347 | 9.7 | 9.7 | 0.00 | 0.00 | 0.00 | 84 | 1026.8 |
| 20260506092047 | 7 | 351 | 8.0 | 8.0 | 0.00 | 0.00 | 0.00 | 84 | 1026.8 |
| 20260506091647 | 7 | 51 | 3.2 | 11.3 | 0.00 | 0.00 | 0.00 | 84 | 1026.8 |
| 20260506091246 | 7 | 348 | 6.4 | 9.7 | 0.00 | 0.00 | 0.00 | 85 | 1026.8 |
| 20260506090845 | 7 | 350 | 6.4 | 12.9 | 0.00 | 0.00 | 0.00 | 85 | 1026.7 |
| 20260506090444 | 7 | 350 | 12.9 | 12.9 | 0.00 | 0.00 | 0.00 | 85 | 1026.8 |
| 20260506090043 | 7 | 326 | 6.4 | 11.3 | 0.00 | 0.00 | 0.00 | 85 | 1026.8 |
| 20260506085645 | 7 | 312 | 1.6 | 11.3 | 0.00 | 0.00 | 0.00 | 85 | 1026.8 |
| 20260506085642 | 7 | 312 | 1.6 | 11.3 | 0.00 | 0.00 | 0.00 | 85 | 1026.8 |
| 20260506085241 | 7 | 339 | 8.0 | 9.7 | 0.00 | 0.00 | 0.00 | 85 | 1026.8 |
| 20260506084840 | 7 | 26 | 1.6 | 12.9 | 0.00 | 0.00 | 0.00 | 85 | 1026.9 |
| 20260506084439 | 7 | 221 | 1.6 | 6.4 | 0.00 | 0.00 | 0.00 | 85 | 1027.0 |
| 20260506084038 | 7 | 156 | 1.6 | 6.4 | 0.00 | 0.00 | 0.00 | 85 | 1027.0 |
| 20260506083637 | 7 | 312 | 6.4 | 6.4 | 0.00 | 0.00 | 0.00 | 85 | 1026.9 |
| 20260506083236 | 7 | 90 | 3.2 | 9.7 | 0.00 | 0.00 | 0.00 | 85 | 1026.9 |
| 20260506082835 | 7 | 290 | 3.2 | 6.4 | 0.00 | 0.00 | 0.00 | 85 | 1027.0 |
| 20260506082435 | 7 | 279 | 1.6 | 8.0 | 0.00 | 0.00 | 0.00 | 85 | 1026.9 |
| 20260506082034 | 7 | 321 | 4.8 | 4.8 | 0.00 | 0.00 | 0.00 | 85 | 1027.0 |
| 20260506081633 | 7 | 295 | 3.2 | 6.4 | 0.00 | 0.00 | 0.00 | 85 | 1027.0 |
| 20260506081232 | 7 | 289 | 1.6 | 8.0 | 0.00 | 0.00 | 0.00 | 85 | 1027.0 |
| 20260506080831 | 7 | 324 | 3.2 | 8.0 | 0.00 | 0.00 | 0.00 | 85 | 1026.9 |
| 20260506080654 | 7 | 299 | 1.6 | 6.4 | 0.00 | 0.00 | 0.00 | 85 | 1026.9 |
| 20260506080430 | 7 | 299 | 1.6 | 6.4 | 0.00 | 0.00 | 0.00 | 85 | 1026.9 |
| 20260506073223 | 7 | 288 | 8.0 | 12.9 | 0.00 | 0.00 | 0.00 | 86 | 1026.9 |
| 20260506072822 | 7 | 334 | 11.3 | 14.5 | 0.00 | 0.00 | 0.00 | 86 | 1026.8 |
| 20260506072421 | 7 | 349 | 8.0 | 11.3 | 0.00 | 0.00 | 0.00 | 87 | 1026.8 |
| 20260506072020 | 7 | 351 | 4.8 | 9.7 | 0.00 | 0.00 | 0.00 | 87 | 1026.9 |
| 20260506071622 | 7 | 346 | 6.4 | 9.7 | 0.00 | 0.00 | 0.00 | 88 | 1026.8 |
| 20260506071619 | 7 | 346 | 6.4 | 9.7 | 0.00 | 0.00 | 0.00 | 88 | 1026.8 |
| 20260506071218 | 7 | 319 | 4.8 | 11.3 | 0.00 | 0.00 | 0.00 | 88 | 1026.7 |
| 20260506070817 | 7 | 301 | 6.4 | 11.3 | 0.00 | 0.00 | 0.00 | 88 | 1026.7 |
| 20260506070416 | 7 | 320 | 1.6 | 11.3 | 0.00 | 0.00 | 0.00 | 88 | 1026.7 |
| 20260506062407 | 7 | 41 | 3.2 | 14.5 | 0.00 | 0.00 | 0.00 | 90 | 1026.4 |
| 20260506062006 | 7 | 2 | 4.8 | 14.5 | 0.00 | 0.00 | 0.00 | 90 | 1026.4 |
| 20260506061605 | 7 | 313 | 6.4 | 9.7 | 0.00 | 0.00 | 0.00 | 90 | 1026.4 |
| 20260506061204 | 7 | 314 | 6.4 | 9.7 | 0.00 | 0.00 | 0.00 | 90 | 1026.5 |
| 20260506060803 | 7 | 140 | 3.2 | 6.4 | 0.00 | 0.00 | 0.00 | 90 | 1026.4 |
| 20260506060402 | 7 | 273 | 3.2 | 8.0 | 0.00 | 0.00 | 0.00 | 90 | 1026.4 |
| 20260506051150 | 7 | 335 | 4.8 | 9.7 | 0.00 | 0.00 | 0.00 | 91 | 1026.1 |
| 20260506050749 | 7 | 317 | 1.6 | 8.0 | 0.00 | 0.00 | 0.00 | 91 | 1026.1 |
| 20260506050348 | 7 | 351 | 1.6 | 8.0 | 0.00 | 0.00 | 0.00 | 91 | 1026.1 |
| 20260506044744 | 7 | 248 | 1.6 | 6.4 | 0.00 | 0.00 | 0.00 | 90 | 1025.9 |
| 20260506044343 | 7 | 356 | 4.8 | 4.8 | 0.00 | 0.00 | 0.00 | 90 | 1026.0 |
| 20260506043943 | 7 | 306 | 0.0 | 8.0 | 0.00 | 0.00 | 0.00 | 89 | 1026.0 |
| 20260506043542 | 7 | 351 | 3.2 | 8.0 | 0.00 | 0.00 | 0.00 | 89 | 1025.9 |
| 20260506043141 | 7 | 349 | 4.8 | 8.0 | 0.00 | 0.00 | 0.00 | 89 | 1025.9 |
| 20260506042740 | 7 | 324 | 4.8 | 6.4 | 0.00 | 0.00 | 0.00 | 89 | 1025.8 |
| 20260506042339 | 7 | 352 | 6.4 | 6.4 | 0.00 | 0.00 | 0.00 | 89 | 1025.8 |
| 20260506041938 | 7 | 320 | 3.2 | 3.2 | 0.00 | 0.00 | 0.00 | 88 | 1025.7 |
| 20260506041537 | 7 | 339 | 1.6 | 9.7 | 0.00 | 0.00 | 0.00 | 88 | 1025.8 |